ATLAS 5 CENTAUR DEB, 52973

Orbit data source: Space-Track

ATLAS 5 CENTAUR DEB, 52973 is space debris in HEO originally from a launch on Wed, 17 Oct 2018 UTC launched from the Air Force Eastern Test Range (AFETR). Debris objects in space refer to the collection of defunct objects orbiting the Earth. Examples of debris include non-operational satellites, rocket bodies, and fragments generated from explosions, collisions, or faulty payload assembly.

Loading next visibility...
Identifier
52973, 2018-079GX
Orbit
HEO
Country
Flag of USUS
Related business
Flag of USUnited Launch Alliance/Lockheed Martin (US)
Manufacturer
ULA Decatur
Mission
Spacecraft
Bus & Motor
Unknown
Mass
Unknown
Launch date (UTC)
2018-10-17 (7 years ago)
Launch vehicle
Unknown
Launch site
Air Force Eastern Test Range (AFETR)
Object type
Payload
Rocket body
Debris
Shape & HBR
Unknown shape, 1.1 m
Radar Cross Section
RCS unknown

Expand to show TLE details & history
Last TLE update: 6 days ago

TLE from 6 days ago
0 ATLAS 5 CENTAUR DEB
1 52973U 18079GX  25281.70229228 -.00000045  00000-0  00000-0 0  9991
2 52973  12.3412  87.2511 4562740 207.4328 118.5735  1.71423145 26117
Epoch: 2025-10-08T16:51Z
TLE epoch observation values (Epoch: 2025-10-08T16:51:18.052Z)
Latitude
-0.00005°
Longitude
176.85097°
Altitude
32,837.668 km
Speed
2.61 km/s
True Right ascension
05h 48m 59s
True Declination
0° 00' 00"
Sunlit
Object was in daylight at epoch
Visualization orbit readout
Latitude
Unknown
Longitude
Unknown
Altitude
Unknown
Speed
Unknown
Apparent Right ascension
Unknown
Apparent Declination
Unknown
Sunlit
N/A
Visualization observer readout
Local Sidereal Time
05:30:47
Azimuth
Unknown
Elevation
Unknown
Doppler factor
Unknown
Orbital elements
Apogee altitude
36,571.679 km
Perigee altitude
9,657.947 km
Semi-major axis
29,492.95 km
Eccentricity
0.45627
Inclination
12.3412°
RAAN
87.2511°
Arg. of periapsis
207.4328°
True anomaly
152.63395°
Mean anomaly
118.5735°
Eccentric anomaly
136.55173°
Mean motion
0.42851 °/min
Orbital period
840.11 mins
BSTAR
0
Loading maneuver chart data...
Computing Atmospheric mass density...

Documentation

Showing up to 5 results
|